User: anonymous   Login
Location: Unspecified
(0.0000°N, 0.0000°E)
Time: 06:44:57
(UTC+00:00)
Language:

USA 257 - Orbit

View from above orbital plane
View from above orbital plane
View from above satellite
View from above satellite

Ground track
Ground track

The orbit data is extracted from the following two-line orbital elements,

1 40208U 14055A   19349.74003939 0.00000000  00000-0  00000-0 0    03
2 40208   0.1685 107.8677 0018471 254.0045 105.7999  1.00292000    07
Epoch (UTC): 15 December 2019 17:45:39
Eccentricity: 0.0018471
inclination: 0.1685°
perigee height: 35702 km
apogee height: 35858 km
right ascension of ascending node: 107.8677°
argument of perigee: 254.0045°
revolutions per day: 1.00292000
mean anomaly at epoch: 105.7999°
orbit number at epoch: 0

The dashed part of the orbit path shows where the satellite is in the earth's shadow,  

DLR